Date String (YYYY-MM-DD hh:mm:ss) UTC,Instrument flags,Ambient pressure (hPa),Sample flow (lpm),Bypass flow (lpm),Sample temperature (°C),Ambient temperature (°C),ASC tube jacket temperature (°C),LED temperature (°C),Box temperature (°C),Sample RH (%),Span deviation,Mass concentration (μg/m³),Mass concentration (μg/m³),Mass concentration (μg/m³)
DateTimeUTC,F1_M11,P_M11,Q1_M11,Q2_M11,T1_M11,T2_M11,T3_M11,T4_M11,T5_M11,U1_M11,ZSPAN_M11,X0_M11,X2_M11,X1_M11
2021-12-23 01:00:00,,0820.5,4.99,0.00,27.8,27.0,00.0,36.7,29.6,05.1,0000.0,0001.46,0000.39,0000.26
2021-12-23 01:01:00,,0820.6,5.01,0.00,27.8,27.0,00.0,36.7,29.6,05.1,0000.0,0000.59,0000.39,0000.26
2021-12-23 01:02:00,,0820.6,5.00,0.00,27.8,27.0,00.0,36.7,29.6,05.1,0000.0,0000.64,0000.41,0000.26
2021-12-23 01:03:00,,0820.6,5.00,0.00,27.8,27.0,00.0,36.7,29.6,05.3,0000.0,0001.17,0000.43,0000.26
2021-12-23 01:04:00,,0820.6,5.01,0.00,27.8,27.1,00.0,36.7,29.6,05.2,0000.0,0001.19,0000.43,0000.25
2021-12-23 01:05:00,,0820.6,5.00,0.00,27.8,27.1,00.0,36.7,29.6,05.2,0000.0,0001.12,0000.39,0000.26
2021-12-23 01:06:00,,0820.6,5.02,0.00,27.8,27.1,00.0,36.7,29.6,05.1,0000.0,0001.11,0000.39,0000.26
2021-12-23 01:07:00,,0820.5,4.99,0.00,27.8,27.1,00.0,36.7,29.6,05.1,0000.0,0001.13,0000.40,0000.26
2021-12-23 01:08:00,,0820.6,5.01,0.00,27.8,27.1,00.0,36.7,29.6,05.1,0000.0,0001.14,0000.40,0000.26
2021-12-23 01:09:00,,0820.6,4.99,0.00,27.9,27.1,00.0,36.7,29.6,05.1,0000.0,0001.10,0000.39,0000.27
2021-12-23 01:10:00,,0820.4,5.00,0.00,27.9,27.1,00.0,36.7,29.7,05.1,0000.0,0001.19,0000.39,0000.27
2021-12-23 01:11:00,,0820.3,4.98,0.00,27.9,27.1,00.0,36.8,29.6,05.1,0000.0,0001.20,0000.39,0000.26
2021-12-23 01:12:00,,0820.6,5.02,0.00,27.9,27.1,00.0,36.8,29.6,05.1,0000.0,0001.18,0000.37,0000.25
2021-12-23 01:13:00,,0820.5,5.00,0.00,27.9,27.1,00.0,36.8,29.7,05.1,0000.0,0001.23,0000.36,0000.25
2021-12-23 01:14:00,,0820.2,5.00,0.00,27.9,27.1,00.0,36.8,29.7,05.1,0000.0,0000.71,0000.33,0000.25
2021-12-23 01:15:00,,0820.4,5.00,0.00,27.9,27.1,00.0,36.8,29.7,05.1,0000.0,0000.68,0000.33,0000.25
2021-12-23 01:16:00,,0820.3,4.99,0.00,27.9,27.1,00.0,36.8,29.7,05.1,0000.0,0000.68,0000.33,0000.25
2021-12-23 01:17:00,,0820.2,5.01,0.00,27.9,27.1,00.0,36.8,29.7,05.2,0000.0,0000.66,0000.32,0000.25
2021-12-23 01:18:00,,0820.4,5.00,0.00,27.9,27.1,00.0,36.8,29.7,05.3,0000.0,0000.65,0000.31,0000.25
2021-12-23 01:19:00,,0820.6,4.99,0.00,27.9,27.1,00.0,36.8,29.7,05.2,0000.0,0000.65,0000.31,0000.24
2021-12-23 01:20:00,,0820.6,5.01,0.00,27.9,27.1,00.0,36.8,29.7,05.1,0000.0,0000.60,0000.29,0000.24
2021-12-23 01:21:00,,0820.6,5.01,0.00,27.9,27.1,00.0,36.8,29.7,05.2,0000.0,0000.56,0000.31,0000.24
2021-12-23 01:22:00,,0820.6,5.00,0.00,27.9,27.1,00.0,36.8,29.7,05.2,0000.0,0000.55,0000.32,0000.25
2021-12-23 01:23:00,,0820.6,4.99,0.00,27.9,27.1,00.0,36.8,29.6,05.2,0000.0,0000.59,0000.34,0000.25
2021-12-23 01:24:00,,0820.6,5.02,0.00,27.9,27.1,00.0,36.8,29.6,05.2,0000.0,0000.55,0000.35,0000.26
2021-12-23 01:25:00,,0820.7,4.99,0.00,27.9,27.1,00.0,36.8,29.6,05.2,0000.0,0000.82,0000.37,0000.27
2021-12-23 01:26:00,,0820.6,5.00,0.00,27.9,27.1,00.0,36.8,29.6,05.2,0000.0,0001.96,0000.37,0000.27
2021-12-23 01:27:00,,0820.6,5.00,0.00,27.9,27.0,00.0,36.8,29.6,05.3,0000.0,0001.95,0000.36,0000.27
2021-12-23 01:28:00,,0820.5,5.01,0.00,27.8,27.0,00.0,36.8,29.5,05.2,0000.0,0002.17,0000.42,0000.27
2021-12-23 01:29:00,,0820.3,4.99,0.00,27.8,27.0,00.0,36.8,29.5,05.1,0000.0,0002.34,0000.45,0000.29
2021-12-23 01:30:00,,0820.5,5.00,0.00,27.8,27.0,00.0,36.8,29.5,05.2,0000.0,0002.77,0000.50,0000.29
2021-12-23 01:31:00,,0820.6,5.00,0.00,27.8,27.0,00.0,36.8,29.5,05.1,0000.0,0004.34,0000.57,0000.30
2021-12-23 01:32:00,,0820.6,4.98,0.00,27.8,27.0,00.0,36.8,29.5,05.1,0000.0,0004.73,0000.60,0000.31
2021-12-23 01:33:00,,0820.5,5.01,0.00,27.8,27.0,00.0,36.8,29.6,05.1,0000.0,0006.31,0000.61,0000.32
2021-12-23 01:34:00,,0820.4,4.99,0.00,27.8,27.0,00.0,36.8,29.6,05.1,0000.0,0006.99,0000.63,0000.33
2021-12-23 01:35:00,,0820.6,5.01,0.00,27.8,27.0,00.0,36.8,29.6,05.1,0000.0,0007.34,0000.66,0000.34
2021-12-23 01:36:00,,0820.7,5.00,0.00,27.9,27.1,00.0,36.8,29.6,05.2,0000.0,0007.59,0000.69,0000.35
2021-12-23 01:37:00,,0820.6,4.99,0.00,27.9,27.1,00.0,36.8,29.6,05.4,0000.0,0006.52,0000.73,0000.35
2021-12-23 01:38:00,,0820.6,5.01,0.00,27.9,27.1,00.0,36.8,29.6,05.4,0000.0,0006.51,0000.74,0000.35
2021-12-23 01:39:00,,0820.6,4.98,0.00,27.9,27.1,00.0,36.8,29.6,05.2,0000.0,0006.44,0000.73,0000.35
2021-12-23 01:40:00,,0820.6,5.02,0.00,27.9,27.1,00.0,36.8,29.6,05.2,0000.0,0006.92,0000.72,0000.35
2021-12-23 01:41:00,,0820.6,4.99,0.00,27.9,27.1,00.0,36.8,29.6,05.2,0000.0,0006.82,0000.68,0000.34
2021-12-23 01:42:00,,0820.6,5.02,0.00,27.8,27.0,00.0,36.8,29.6,05.1,0000.0,0005.11,0000.64,0000.35
2021-12-23 01:43:00,,0820.5,4.98,0.00,27.8,27.0,00.0,36.8,29.5,05.0,0000.0,0004.87,0000.64,0000.35
2021-12-23 01:44:00,,0820.4,5.00,0.00,27.8,26.9,00.0,36.8,29.4,05.0,0000.0,0003.52,0000.65,0000.36
2021-12-23 01:45:00,,0820.4,5.01,0.00,27.8,26.9,00.0,36.8,29.4,05.0,0000.0,0002.76,0000.67,0000.36
2021-12-23 01:46:00,,0820.5,4.99,0.00,27.8,26.9,00.0,36.8,29.5,05.0,0000.0,0002.47,0000.68,0000.36
2021-12-23 01:47:00,,0820.7,5.00,0.00,27.8,26.9,00.0,36.8,29.5,05.0,0000.0,0002.13,0000.66,0000.36
2021-12-23 01:48:00,,0820.9,5.01,0.00,27.8,27.0,00.0,36.8,29.5,05.0,0000.0,0002.04,0000.63,0000.36
2021-12-23 01:49:00,,0820.8,5.00,0.00,27.8,27.0,00.0,36.8,29.5,05.1,0000.0,0002.07,0000.64,0000.38
2021-12-23 01:50:00,,0820.4,4.99,0.00,27.8,27.0,00.0,36.8,29.5,05.2,0000.0,0002.03,0000.62,0000.38
2021-12-23 01:51:00,,0820.1,5.00,0.00,27.8,26.9,00.0,36.8,29.4,05.5,0000.0,0002.17,0000.62,0000.37
2021-12-23 01:52:00,,0820.2,5.00,0.00,27.7,26.9,00.0,36.8,29.4,05.5,0000.0,0002.97,0000.61,0000.36
2021-12-23 01:53:00,,0820.3,5.01,0.00,27.7,26.9,00.0,36.8,29.4,05.5,0000.0,0002.93,0000.59,0000.35
2021-12-23 01:54:00,,0820.6,4.98,0.00,27.7,26.9,00.0,36.7,29.4,05.5,0000.0,0002.84,0000.55,0000.34
2021-12-23 01:55:00,,0820.6,5.00,0.00,27.7,26.9,00.0,36.7,29.5,05.5,0000.0,0002.67,0000.51,0000.32
2021-12-23 01:56:00,,0820.6,5.00,0.00,27.7,26.9,00.0,36.7,29.4,05.5,0000.0,0002.52,0000.46,0000.30
2021-12-23 01:57:00,,0820.5,5.00,0.00,27.7,26.9,00.0,36.7,29.4,05.5,0000.0,0002.36,0000.42,0000.29
2021-12-23 01:58:00,,0820.2,5.02,0.00,27.7,26.9,00.0,36.7,29.4,05.5,0000.0,0002.32,0000.41,0000.27
2021-12-23 01:59:00,,0820.2,4.99,0.00,27.7,26.9,00.0,36.7,29.4,05.5,0000.0,0002.32,0000.41,0000.27
